Location: Newark
(41.9000°N, 12.4833°E)
Time: 22:47:54
(UTC+00:00)

PCSat - Visible Passes

Search period start: 20 May 2019 00:00
Search period end: 30 May 2019 00:00
Orbit: 785 x 794 km, 67.1° (Epoch: 20 May)

Date Brightness Start Highest point End Pass type
(mag) Time Alt. Az. Time Alt. Az. Time Alt. Az.
20 May 11.5 00:30:41 10° WNW 00:32:24 16° WNW 00:32:24 16° WNW visible
20 May 10.2 22:15:16 10° NNW 22:20:30 45° NE 22:21:16 43° ENE visible
20 May 11.1 23:59:10 10° NW 00:01:57 22° W 00:01:57 22° W visible
21 May 10.7 21:44:28 10° NNW 21:49:25 34° NE 21:50:52 30° E visible
21 May 10.7 23:27:51 10° NW 23:31:33 32° W 23:31:33 32° W visible
22 May 11.1 21:13:43 10° N 21:18:18 27° NE 21:20:31 20° E visible
22 May 10.1 22:56:42 10° NW 23:01:12 47° W 23:01:12 47° W visible
23 May 11.4 20:43:03 10° N 20:47:08 21° NE 20:50:11 14° E visible
23 May 9.6 22:25:38 10° NW 22:30:53 70° WSW 22:30:53 70° WSW visible
24 May 11.7 20:12:30 10° N 20:15:54 17° NE 20:19:17 10° E visible
24 May 9.4 21:54:38 10° NNW 22:00:06 86° ENE 22:00:36 74° SE visible
24 May 11.8 23:40:26 10° WNW 23:41:18 12° W 23:41:18 12° W visible
25 May 11.8 19:42:07 10° N 19:44:38 13° NE 19:47:07 10° ENE visible
25 May 9.7 21:23:43 10° NNW 21:29:07 64° ENE 21:30:21 49° ESE visible
25 May 11.5 23:08:22 10° WNW 23:11:03 17° W 23:11:03 17° W visible
26 May 12.0 19:12:27 10° NNE 19:13:18 10° NNE 19:14:08 10° NE visible
26 May 10.1 20:52:50 10° NNW 20:58:06 47° NE 21:00:08 32° ESE visible
26 May 11.0 22:36:49 10° NW 22:40:50 25° WSW 22:40:50 25° WSW visible
27 May 10.6 20:22:01 10° NNW 20:27:01 36° NE 20:29:58 21° ESE visible
27 May 10.5 22:05:29 10° NW 22:10:22 35° WSW 22:10:40 35° WSW visible
28 May 10.9 19:51:16 10° N 19:55:54 28° NE 19:59:49 13° ESE visible
28 May 10.0 21:34:18 10° NW 21:39:31 48° WSW 21:40:32 43° SW visible
29 May 11.3 19:20:35 10° N 19:24:44 22° NE 19:28:51 10° E visible
29 May 9.7 21:03:13 10° NW 21:08:37 67° WSW 21:10:26 41° S visible
